Regional Weather Roundup
Issued by NWS

Home | Current Version | Previous Version | Text Only | Print | Product List | Glossary On
Versions: 1 2 3 4 5 6 7 8 9 10 11 12 13 14 15 16 17 18 19 20 21 22 23 24 25 26 27 28 29 30 31 32 33 34 35 36 37 38 39 40 41 42 43 44 45 46 47 48 49 50
000
ASUS43 KBIS 281802
RWRND

NORTH DAKOTA REGIONAL WEATHER ROUNDUP
NATIONAL WEATHER SERVICE BISMARCK ND
100 PM CDT FRI AUG 28 2015

NOTE: "FAIR" INDICATES FEW OR NO CLOUDS BELOW 12,000 FEET WITH NO
SIGNIFICANT WEATHER AND/OR OBSTRUCTIONS TO VISIBILITY.


NDZ001>003-009>011-017-281900-
NORTHWEST NORTH DAKOTA

CITY           SKY/WX    TMP DP  RH WIND       PRES   REMARKS
WILLISTON      SUNNY     81  61  50 S8        29.90F
6HR MIN TEMP:  57; 6HR MAX TEMP:  81;

MINOT          SUNNY     82  60  47 NW5       29.87S
MINOT AFB      SUNNY     83  60  45 N8        29.86R
$$

NDZ018>021-031>035-040>046-281900-
SOUTHWEST NORTH DAKOTA

CITY           SKY/WX    TMP DP  RH WIND       PRES   REMARKS
BISMARCK       SUNNY     82  65  56 SW6       29.91S
6HR MIN TEMP:  58; 6HR MAX TEMP:  82;

DICKINSON      SUNNY     84  55  36 NW6       29.94S
GARRISON         N/A     79  30  16 VRB5      29.90R
6HR MIN TEMP:  60; 6HR MAX TEMP:  79;

HETTINGER ARPT SUNNY     82  54  37 W8        29.98F
$$

NDZ004>008-012>016-024-026-027-054-281900-
NORTHEAST NORTH DAKOTA

CITY           SKY/WX    TMP DP  RH WIND       PRES   REMARKS
GRAND FORKS    CLOUDY    79  67  66 S17       29.84F
GRND FRKS AFB  CLOUDY    80  68  68 S20       29.84F
DEVILS LAKE    SUNNY     79  63  57 SW9       29.85F
$$

NDZ022-023-025-028>030-036>039-047>053-281900-
SOUTHEAST NORTH DAKOTA

CITY           SKY/WX    TMP DP  RH WIND       PRES   REMARKS
FARGO          MOSUNNY   79  67  66 S12       29.93S
6HR MIN TEMP:  65; 6HR MAX TEMP:  79;

JAMESTOWN      SUNNY     81  66  60 S10       29.90F
$$




USA.gov is the U.S. government's official web portal to all federal, state and local government web resources and services.